Location: Bartlow
(52.0833°N, 0.3167°E)
Time: 05:22:17
(UTC+00:00)

Cosmos 2333 Rocket - Pass Details

Date: 26 September 2023
Orbit: 837 x 864 km, 70.8° (Epoch: 29 November)

Event Time Altitude Azimuth Distance (km) Brightness Sun altitude
Rises 04:13:11 0° 326° (NNW) 3,425 5.2 -15.6°
Reaches altitude 10° 04:15:40 10° 323° (NW) 2,490 4.5 -15.2°
Maximum altitude 04:21:15 55° 247° (WSW) 1,022 2.3 -14.4°
Drops below altitude 10° 04:26:49 10° 171° (S) 2,490 4.6 -13.6°
Sets 04:29:18 0° 167° (SSE) 3,425 5.3 -13.2°
